Time,TemperatureF,DewpointF,PressureIn,WindDirection,WindDirectionDegrees,WindSpeedMPH,WindSpeedGustMPH,Humidity,HourlyPrecipIn,Conditions,Clouds,dailyrainin,SoftwareType,DateUTC
2013-02-12 00:00:00,44.0,34.9,0.00,ESE,113,0.0,0.0,70,0.00,,,0.00,WUHU216HW,2013-02-12 05:00:00,
2013-02-12 00:05:00,43.8,34.7,0.00,ESE,113,0.0,0.0,70,0.00,,,0.00,WUHU216HW,2013-02-12 05:05:00,
2013-02-12 00:10:00,43.7,34.6,0.00,ESE,113,0.0,0.0,70,0.00,,,0.00,WUHU216HW,2013-02-12 05:10:00,
2013-02-12 00:15:00,43.5,34.4,0.00,ESE,113,0.0,0.0,70,0.00,,,0.00,WUHU216HW,2013-02-12 05:15:00,
2013-02-12 00:20:00,43.3,34.2,0.00,ESE,113,0.0,0.0,70,0.00,,,0.00,WUHU216HW,2013-02-12 05:20:00,
2013-02-12 00:25:00,43.1,34.1,0.00,ESE,113,0.0,2.4,70,0.00,,,0.00,WUHU216HW,2013-02-12 05:25:00,
2013-02-12 00:30:00,43.1,34.1,0.00,ESE,113,0.0,2.4,70,0.00,,,0.00,WUHU216HW,2013-02-12 05:30:00,
2013-02-12 00:35:00,42.9,33.9,0.00,SE,135,3.3,4.2,70,0.00,,,0.00,WUHU216HW,2013-02-12 05:35:00,
2013-02-12 00:40:00,43.1,34.1,0.00,ENE,68,0.0,4.2,70,0.00,,,0.00,WUHU216HW,2013-02-12 05:40:00,
2013-02-12 00:45:00,43.3,34.2,0.00,ENE,68,0.0,3.1,70,0.00,,,0.00,WUHU216HW,2013-02-12 05:45:00,
2013-02-12 00:50:00,43.5,34.4,0.00,ENE,68,0.0,0.0,70,0.00,,,0.00,WUHU216HW,2013-02-12 05:50:00,
2013-02-12 00:55:00,43.5,34.4,0.00,ENE,68,1.3,1.3,70,0.00,,,0.00,WUHU216HW,2013-02-12 05:55:00,
2013-02-12 01:00:00,43.5,34.4,0.00,ESE,113,2.2,2.2,70,0.00,,,0.00,WUHU216HW,2013-02-12 06:00:00,
2013-02-12 01:05:00,43.5,34.4,0.00,North,0,0.0,2.2,70,0.00,,,0.00,WUHU216HW,2013-02-12 06:05:00,
2013-02-12 01:10:00,43.5,34.4,0.00,ESE,113,0.6,1.5,70,0.00,,,0.00,WUHU216HW,2013-02-12 06:10:00,
2013-02-12 01:15:00,43.5,34.4,0.00,ESE,113,0.0,1.5,70,0.00,,,0.00,WUHU216HW,2013-02-12 06:15:00,
2013-02-12 01:20:00,43.5,34.4,0.00,ESE,113,0.0,0.0,70,0.00,,,0.00,WUHU216HW,2013-02-12 06:20:00,
2013-02-12 01:25:00,43.5,34.4,0.00,ESE,113,0.0,0.0,70,0.00,,,0.00,WUHU216HW,2013-02-12 06:25:00,
2013-02-12 01:30:00,43.3,33.8,0.00,North,0,0.0,0.8,69,0.00,,,0.00,WUHU216HW,2013-02-12 06:30:00,
2013-02-12 01:35:00,43.3,33.8,0.00,ENE,68,0.0,0.8,69,0.00,,,0.00,WUHU216HW,2013-02-12 06:35:00,
2013-02-12 01:40:00,43.3,33.8,0.00,ENE,68,0.0,0.0,69,0.00,,,0.00,WUHU216HW,2013-02-12 06:40:00,
2013-02-12 01:45:00,43.1,33.7,0.00,ENE,68,0.0,0.0,69,0.00,,,0.00,WUHU216HW,2013-02-12 06:45:00,
2013-02-12 01:50:00,43.1,33.7,0.00,ENE,68,0.0,0.0,69,0.00,,,0.00,WUHU216HW,2013-02-12 06:50:00,
2013-02-12 01:55:00,42.9,33.1,0.00,ESE,113,1.7,6.7,68,0.00,,,0.00,WUHU216HW,2013-02-12 06:55:00,
2013-02-12 02:00:00,42.9,33.1,0.00,ESE,113,0.0,6.7,68,0.00,,,0.00,WUHU216HW,2013-02-12 07:00:00,
2013-02-12 02:05:00,42.6,32.4,0.00,ESE,113,0.0,0.0,67,0.00,,,0.00,WUHU216HW,2013-02-12 07:05:00,
2013-02-12 02:10:00,42.6,32.4,0.00,ESE,113,0.0,1.7,67,0.00,,,0.00,WUHU216HW,2013-02-12 07:10:00,
2013-02-12 02:15:00,42.4,31.8,0.00,ESE,113,0.0,2.0,66,0.00,,,0.00,WUHU216HW,2013-02-12 07:15:00,
2013-02-12 02:20:00,42.4,31.8,0.00,ESE,113,0.0,2.0,66,0.00,,,0.00,WUHU216HW,2013-02-12 07:20:00,
2013-02-12 02:25:00,42.0,31.5,0.00,ESE,113,0.0,3.5,66,0.00,,,0.00,WUHU216HW,2013-02-12 07:25:00,
2013-02-12 02:30:00,42.0,31.5,0.00,ESE,113,2.2,3.5,66,0.00,,,0.00,WUHU216HW,2013-02-12 07:30:00,
2013-02-12 02:35:00,41.7,30.7,0.00,ESE,113,0.0,2.2,65,0.00,,,0.00,WUHU216HW,2013-02-12 07:35:00,
2013-02-12 02:40:00,41.7,30.7,0.00,ESE,113,3.1,3.1,65,0.00,,,0.00,WUHU216HW,2013-02-12 07:40:00,
2013-02-12 02:45:00,41.5,30.6,0.00,ESE,113,0.0,3.1,65,0.00,,,0.00,WUHU216HW,2013-02-12 07:45:00,
2013-02-12 02:50:00,41.3,30.4,0.00,SE,135,0.0,1.7,65,0.00,,,0.00,WUHU216HW,2013-02-12 07:50:00,
2013-02-12 02:55:00,41.1,30.2,0.00,SE,135,0.0,0.0,65,0.00,,,0.00,WUHU216HW,2013-02-12 07:55:00,
2013-02-12 03:00:00,41.1,30.2,0.00,SE,135,0.0,0.0,65,0.00,,,0.00,WUHU216HW,2013-02-12 08:00:00,
2013-02-12 03:05:00,41.1,30.2,0.00,SE,135,0.0,0.0,65,0.00,,,0.00,WUHU216HW,2013-02-12 08:05:00,
2013-02-12 03:10:00,41.0,30.1,0.00,SE,135,0.0,0.0,65,0.00,,,0.00,WUHU216HW,2013-02-12 08:10:00,
2013-02-12 03:15:00,40.8,29.9,0.00,ESE,113,0.0,0.0,65,0.00,,,0.00,WUHU216HW,2013-02-12 08:15:00,
2013-02-12 03:20:00,40.8,30.3,0.00,ESE,113,0.0,0.0,66,0.00,,,0.00,WUHU216HW,2013-02-12 08:20:00,
2013-02-12 03:25:00,40.6,30.1,0.00,SE,135,0.0,0.0,66,0.00,,,0.00,WUHU216HW,2013-02-12 08:25:00,
2013-02-12 03:30:00,40.4,29.9,0.00,SE,135,0.0,0.0,66,0.00,,,0.00,WUHU216HW,2013-02-12 08:30:00,
2013-02-12 03:35:00,40.2,29.7,0.00,ESE,113,0.0,0.0,66,0.00,,,0.00,WUHU216HW,2013-02-12 08:35:00,
2013-02-12 03:40:00,40.1,29.5,0.00,ESE,113,0.0,0.0,66,0.00,,,0.00,WUHU216HW,2013-02-12 08:40:00,
2013-02-12 03:45:00,39.9,29.4,0.00,ESE,113,0.0,0.0,66,0.00,,,0.00,WUHU216HW,2013-02-12 08:45:00,
2013-02-12 03:50:00,39.9,29.4,0.00,ESE,113,0.0,0.0,66,0.00,,,0.00,WUHU216HW,2013-02-12 08:50:00,
2013-02-12 03:55:00,39.7,29.2,0.00,ESE,113,0.0,0.0,66,0.00,,,0.00,WUHU216HW,2013-02-12 08:55:00,
2013-02-12 04:00:00,39.5,29.6,0.00,SE,135,0.0,0.0,67,0.00,,,0.00,WUHU216HW,2013-02-12 09:00:00,
2013-02-12 04:05:00,39.5,29.4,0.00,SE,135,0.0,0.0,67,0.00,,,0.00,WUHU216HW,2013-02-12 09:05:00,
2013-02-12 04:10:00,39.5,29.4,0.00,NE,45,0.0,0.0,67,0.00,,,0.00,WUHU216HW,2013-02-12 09:10:00,
2013-02-12 04:15:00,39.5,29.4,0.00,NE,45,0.0,0.0,67,0.00,,,0.00,WUHU216HW,2013-02-12 09:15:00,
2013-02-12 04:20:00,39.5,29.4,0.00,NE,45,0.0,0.0,67,0.00,,,0.00,WUHU216HW,2013-02-12 09:20:00,
2013-02-12 04:25:00,39.5,29.4,0.00,NE,45,0.0,0.0,67,0.00,,,0.00,WUHU216HW,2013-02-12 09:25:00,
2013-02-12 04:30:00,39.5,29.4,0.00,NE,45,0.0,0.0,67,0.00,,,0.00,WUHU216HW,2013-02-12 09:30:00,
2013-02-12 04:35:00,39.5,29.4,0.00,ENE,68,0.0,0.0,67,0.00,,,0.00,WUHU216HW,2013-02-12 09:35:00,
2013-02-12 04:40:00,39.5,29.4,0.00,ENE,68,0.0,0.0,67,0.00,,,0.00,WUHU216HW,2013-02-12 09:40:00,
2013-02-12 04:45:00,39.5,29.4,0.00,ENE,68,0.0,0.0,67,0.00,,,0.00,WUHU216HW,2013-02-12 09:45:00,
2013-02-12 04:50:00,39.3,29.2,0.00,ENE,68,0.0,2.2,67,0.00,,,0.00,WUHU216HW,2013-02-12 09:50:00,
2013-02-12 04:55:00,39.3,29.2,0.00,ENE,68,0.0,2.2,67,0.00,,,0.00,WUHU216HW,2013-02-12 09:55:00,
2013-02-12 05:00:00,39.3,29.2,0.00,ENE,68,0.0,0.0,67,0.00,,,0.00,WUHU216HW,2013-02-12 10:00:00,
2013-02-12 05:05:00,39.3,29.2,0.00,ENE,68,0.0,0.0,67,0.00,,,0.00,WUHU216HW,2013-02-12 10:05:00,
2013-02-12 05:10:00,39.3,29.2,0.00,ENE,68,0.0,0.0,67,0.00,,,0.00,WUHU216HW,2013-02-12 10:10:00,
2013-02-12 05:15:00,39.3,29.2,0.00,ENE,68,0.0,0.0,67,0.00,,,0.00,WUHU216HW,2013-02-12 10:15:00,
2013-02-12 05:20:00,39.0,29.0,0.00,ENE,68,0.0,0.0,67,0.00,,,0.00,WUHU216HW,2013-02-12 10:20:00,
2013-02-12 05:25:00,39.0,28.9,0.00,ESE,113,0.0,4.4,67,0.00,,,0.00,WUHU216HW,2013-02-12 10:25:00,
2013-02-12 05:30:00,39.0,28.9,0.00,ESE,113,0.0,4.4,67,0.00,,,0.00,WUHU216HW,2013-02-12 10:30:00,
2013-02-12 05:35:00,39.0,28.9,0.00,ESE,113,0.0,0.0,67,0.00,,,0.00,WUHU216HW,2013-02-12 10:35:00,
2013-02-12 05:40:00,39.0,28.9,0.00,ESE,113,0.0,0.0,67,0.00,,,0.00,WUHU216HW,2013-02-12 10:40:00,
2013-02-12 05:45:00,38.8,28.7,0.00,ESE,113,0.0,0.0,67,0.00,,,0.00,WUHU216HW,2013-02-12 10:45:00,
2013-02-12 05:50:00,38.8,28.7,0.00,ESE,113,0.0,0.0,67,0.00,,,0.00,WUHU216HW,2013-02-12 10:50:00,
2013-02-12 05:55:00,38.8,28.7,0.00,ESE,113,0.0,0.0,67,0.00,,,0.00,WUHU216HW,2013-02-12 10:55:00,
2013-02-12 06:00:00,38.8,28.7,0.00,ESE,113,0.0,0.0,67,0.00,,,0.00,WUHU216HW,2013-02-12 11:00:00,
2013-02-12 06:05:00,38.6,28.5,0.00,ESE,113,0.0,0.0,67,0.00,,,0.00,WUHU216HW,2013-02-12 11:05:00,
2013-02-12 06:10:00,38.4,28.4,0.00,ESE,113,0.0,0.0,67,0.00,,,0.00,WUHU216HW,2013-02-12 11:10:00,
2013-02-12 06:15:00,38.4,28.4,0.00,ESE,113,0.0,0.0,67,0.00,,,0.00,WUHU216HW,2013-02-12 11:15:00,
2013-02-12 06:20:00,38.4,28.4,0.00,ESE,113,0.0,0.0,67,0.00,,,0.00,WUHU216HW,2013-02-12 11:20:00,
2013-02-12 06:25:00,38.3,28.2,0.00,ESE,113,0.0,0.0,67,0.00,,,0.00,WUHU216HW,2013-02-12 11:25:00,
2013-02-12 06:30:00,38.3,28.2,0.00,ESE,113,0.0,0.0,66,0.00,,,0.00,WUHU216HW,2013-02-12 11:30:00,
2013-02-12 06:35:00,38.1,28.0,0.00,ESE,113,0.0,0.0,67,0.00,,,0.00,WUHU216HW,2013-02-12 11:35:00,
2013-02-12 06:40:00,38.1,28.0,0.00,ESE,113,0.0,0.0,67,0.00,,,0.00,WUHU216HW,2013-02-12 11:40:00,
2013-02-12 06:45:00,37.9,27.9,0.00,North,0,0.0,0.0,67,0.00,,,0.00,WUHU216HW,2013-02-12 11:45:00,
2013-02-12 06:50:00,37.9,27.9,0.00,ESE,113,0.0,0.0,67,0.00,,,0.00,WUHU216HW,2013-02-12 11:50:00,
2013-02-12 06:55:00,37.7,27.7,0.00,ESE,113,0.0,0.0,67,0.00,,,0.00,WUHU216HW,2013-02-12 11:55:00,
2013-02-12 07:00:00,37.5,27.6,0.00,ESE,113,0.0,0.0,67,0.00,,,0.00,WUHU216HW,2013-02-12 12:00:00,
2013-02-12 07:05:00,37.5,27.6,0.00,ESE,113,0.0,0.0,67,0.00,,,0.00,WUHU216HW,2013-02-12 12:05:00,
2013-02-12 07:10:00,37.4,27.4,0.00,ESE,113,0.0,0.0,67,0.00,,,0.00,WUHU216HW,2013-02-12 12:10:00,
2013-02-12 07:15:00,37.2,27.2,0.00,ESE,113,0.0,0.0,67,0.00,,,0.00,WUHU216HW,2013-02-12 12:15:00,
2013-02-12 07:20:00,37.2,27.2,0.00,West,270,1.5,1.5,67,0.00,,,0.00,WUHU216HW,2013-02-12 12:20:00,
2013-02-12 07:25:00,37.0,27.0,0.00,West,270,0.0,1.5,67,0.00,,,0.00,WUHU216HW,2013-02-12 12:25:00,
2013-02-12 07:30:00,37.0,27.0,0.00,West,270,0.0,0.0,67,0.00,,,0.00,WUHU216HW,2013-02-12 12:30:00,
2013-02-12 07:35:00,37.0,27.0,0.00,West,270,0.0,0.0,67,0.00,,,0.00,WUHU216HW,2013-02-12 12:35:00,
2013-02-12 07:40:00,36.8,27.2,0.00,West,270,0.0,0.0,68,0.00,,,0.00,WUHU216HW,2013-02-12 12:40:00,
2013-02-12 07:45:00,36.6,27.1,0.00,West,270,0.0,0.0,68,0.00,,,0.00,WUHU216HW,2013-02-12 12:45:00,
2013-02-12 07:50:00,36.6,27.1,0.00,West,270,0.0,0.0,68,0.00,,,0.00,WUHU216HW,2013-02-12 12:50:00,
2013-02-12 07:55:00,36.5,26.9,0.00,West,270,0.0,0.0,68,0.00,,,0.00,WUHU216HW,2013-02-12 12:55:00,
2013-02-12 08:00:00,36.3,26.7,0.00,West,270,0.0,0.0,68,0.00,,,0.00,WUHU216HW,2013-02-12 13:00:00,
2013-02-12 08:05:00,36.3,26.7,0.00,West,270,0.0,0.0,68,0.00,,,0.00,WUHU216HW,2013-02-12 13:05:00,
2013-02-12 08:10:00,36.5,26.9,0.00,West,270,0.0,0.0,68,0.00,,,0.00,WUHU216HW,2013-02-12 13:10:00,
2013-02-12 08:15:00,36.6,27.1,0.00,West,270,0.0,0.0,68,0.00,,,0.00,WUHU216HW,2013-02-12 13:15:00,
2013-02-12 08:20:00,36.6,27.1,0.00,West,270,0.0,0.0,68,0.00,,,0.00,WUHU216HW,2013-02-12 13:20:00,
2013-02-12 08:25:00,36.8,27.2,0.00,West,270,0.0,0.0,68,0.00,,,0.00,WUHU216HW,2013-02-12 13:25:00,
2013-02-12 08:30:00,37.0,27.4,0.00,West,270,0.0,0.0,69,0.00,,,0.00,WUHU216HW,2013-02-12 13:30:00,
2013-02-12 08:35:00,37.2,27.6,0.00,West,270,0.0,0.0,68,0.00,,,0.00,WUHU216HW,2013-02-12 13:35:00,
2013-02-12 08:40:00,37.2,27.6,0.00,West,270,0.0,0.0,68,0.00,,,0.00,WUHU216HW,2013-02-12 13:40:00,
2013-02-12 08:45:00,37.4,27.8,0.00,West,270,0.0,0.0,68,0.00,,,0.00,WUHU216HW,2013-02-12 13:45:00,
2013-02-12 08:50:00,37.7,28.5,0.00,West,270,0.0,0.0,69,0.00,,,0.00,WUHU216HW,2013-02-12 13:50:00,
2013-02-12 08:54:00,38.1,28.8,0.00,West,270,0.0,0.0,69,0.00,,,0.00,WUHU216HW,2013-02-12 13:54:00,
2013-02-12 08:59:00,38.4,29.1,0.00,West,270,0.0,0.0,69,0.00,,,0.00,WUHU216HW,2013-02-12 13:59:00,
2013-02-12 09:04:00,38.8,29.1,0.00,ESE,113,0.0,1.3,68,0.00,,,0.00,WUHU216HW,2013-02-12 14:04:00,
2013-02-12 09:09:00,38.8,29.1,0.00,NNE,23,0.0,2.2,68,0.00,,,0.00,WUHU216HW,2013-02-12 14:09:00,
2013-02-12 09:14:00,39.0,29.2,0.00,North,0,0.0,2.2,68,0.00,,,0.00,WUHU216HW,2013-02-12 14:14:00,
2013-02-12 09:19:00,39.0,29.2,0.00,NNE,23,0.0,1.5,68,0.00,,,0.00,WUHU216HW,2013-02-12 14:19:00,
2013-02-12 09:24:00,39.0,28.9,0.00,NNW,338,0.0,0.0,67,0.00,,,0.00,WUHU216HW,2013-02-12 14:24:00,
2013-02-12 09:29:00,39.3,29.2,0.00,ENE,68,2.2,2.2,67,0.00,,,0.00,WUHU216HW,2013-02-12 14:29:00,
2013-02-12 09:34:00,39.7,29.6,0.00,NW,315,0.0,2.2,67,0.00,,,0.00,WUHU216HW,2013-02-12 14:34:00,
2013-02-12 09:39:00,39.9,29.7,0.00,SE,135,0.0,1.1,67,0.00,,,0.00,WUHU216HW,2013-02-12 14:39:00,
2013-02-12 09:44:00,40.4,29.9,0.00,ENE,68,0.0,4.6,66,0.00,,,0.00,WUHU216HW,2013-02-12 14:44:00,
2013-02-12 09:49:00,40.8,30.3,0.00,NE,45,0.0,4.6,66,0.00,,,0.00,WUHU216HW,2013-02-12 14:49:00,
2013-02-12 09:54:00,41.1,30.6,0.00,East,90,3.1,3.1,66,0.00,,,0.00,WUHU216HW,2013-02-12 14:54:00,
2013-02-12 09:59:00,41.3,30.8,0.00,East,90,1.7,3.1,66,0.00,,,0.00,WUHU216HW,2013-02-12 14:59:00,
2013-02-12 10:04:00,41.5,30.6,0.00,SE,135,1.1,4.4,65,0.00,,,0.00,WUHU216HW,2013-02-12 15:04:00,
2013-02-12 10:09:00,41.9,30.9,0.00,SE,135,2.4,4.4,65,0.00,,,0.00,WUHU216HW,2013-02-12 15:09:00,
2013-02-12 10:14:00,42.0,30.7,0.00,ESE,113,1.3,4.4,64,0.00,,,0.00,WUHU216HW,2013-02-12 15:14:00,
2013-02-12 10:19:00,42.4,31.0,0.00,SW,225,0.0,3.3,64,0.00,,,0.00,WUHU216HW,2013-02-12 15:19:00,
2013-02-12 10:24:00,42.9,31.0,0.00,SSW,203,0.0,2.0,63,0.00,,,0.00,WUHU216HW,2013-02-12 15:24:00,
2013-02-12 10:29:00,43.1,30.9,0.00,SE,135,0.6,2.6,62,0.00,,,0.00,WUHU216HW,2013-02-12 15:29:00,
2013-02-12 10:34:00,43.5,30.9,0.00,SE,135,0.0,2.6,61,0.00,,,0.00,WUHU216HW,2013-02-12 15:34:00,
2013-02-12 10:39:00,43.7,30.9,0.00,SE,135,0.0,2.6,60,0.00,,,0.00,WUHU216HW,2013-02-12 15:39:00,
2013-02-12 10:44:00,44.4,31.4,0.00,West,270,0.0,2.0,60,0.00,,,0.00,WUHU216HW,2013-02-12 15:44:00,
2013-02-12 10:49:00,45.3,31.8,0.00,SSW,203,0.0,0.0,59,0.00,,,0.00,WUHU216HW,2013-02-12 15:49:00,
2013-02-12 10:54:00,46.0,32.0,0.00,SE,135,0.0,3.1,58,0.00,,,0.00,WUHU216HW,2013-02-12 15:54:00,
2013-02-12 10:59:00,46.0,31.5,0.00,WNW,293,5.3,5.3,57,0.00,,,0.00,WUHU216HW,2013-02-12 15:59:00,
2013-02-12 11:04:00,46.2,31.2,0.00,SSE,158,1.1,5.3,56,0.00,,,0.00,WUHU216HW,2013-02-12 16:04:00,
2013-02-12 11:09:00,46.2,31.2,0.00,NW,315,0.0,3.8,56,0.00,,,0.00,WUHU216HW,2013-02-12 16:09:00,
2013-02-12 11:14:00,46.4,31.4,0.00,NE,45,0.0,1.5,56,0.00,,,0.00,WUHU216HW,2013-02-12 16:14:00,
2013-02-12 11:19:00,47.1,32.1,0.00,SE,135,2.6,4.6,56,0.00,,,0.00,WUHU216HW,2013-02-12 16:19:00,
2013-02-12 11:24:00,47.1,32.1,0.00,SE,135,0.0,4.6,56,0.00,,,0.00,WUHU216HW,2013-02-12 16:24:00,
2013-02-12 11:29:00,47.1,32.1,0.00,ESE,113,2.9,3.3,56,0.00,,,0.00,WUHU216HW,2013-02-12 16:29:00,
2013-02-12 11:34:00,47.1,32.1,0.00,SE,135,2.4,4.4,56,0.00,,,0.00,WUHU216HW,2013-02-12 16:34:00,
2013-02-12 11:39:00,48.0,32.5,0.00,SE,135,0.6,4.4,55,0.00,,,0.00,WUHU216HW,2013-02-12 16:39:00,
2013-02-12 11:44:00,48.7,32.7,0.00,SE,135,0.0,4.4,54,0.00,,,0.00,WUHU216HW,2013-02-12 16:44:00,
2013-02-12 11:49:00,48.7,32.7,0.00,SE,135,0.0,2.0,54,0.00,,,0.00,WUHU216HW,2013-02-12 16:49:00,
2013-02-12 11:54:00,49.8,33.3,0.00,SE,135,0.0,2.0,53,0.00,,,0.00,WUHU216HW,2013-02-12 16:54:00,
2013-02-12 11:59:00,51.0,33.8,0.00,SE,135,0.0,2.4,52,0.00,,,0.00,WUHU216HW,2013-02-12 16:59:00,
2013-02-12 12:04:00,51.0,33.6,0.00,SE,135,1.1,2.6,51,0.00,,,0.00,WUHU216HW,2013-02-12 17:04:00,
2013-02-12 12:09:00,50.1,32.3,0.00,SE,135,1.5,3.5,50,0.00,,,0.00,WUHU216HW,2013-02-12 17:09:00,
2013-02-12 12:14:00,49.6,32.2,0.00,SE,135,0.0,3.8,51,0.00,,,0.00,WUHU216HW,2013-02-12 17:14:00,
2013-02-12 12:19:00,49.2,32.3,0.00,SE,135,0.0,3.8,52,0.00,,,0.00,WUHU216HW,2013-02-12 17:19:00,
2013-02-12 12:24:00,49.1,32.1,0.00,SE,135,0.0,0.0,52,0.00,,,0.00,WUHU216HW,2013-02-12 17:24:00,
2013-02-12 12:29:00,49.2,32.3,0.00,SE,135,0.0,0.0,52,0.00,,,0.00,WUHU216HW,2013-02-12 17:29:00,
2013-02-12 12:34:00,49.2,32.3,0.00,SE,135,0.0,0.0,52,0.00,,,0.00,WUHU216HW,2013-02-12 17:34:00,
2013-02-12 12:39:00,49.1,32.1,0.00,SE,135,0.0,0.0,52,0.00,,,0.00,WUHU216HW,2013-02-12 17:39:00,
2013-02-12 12:44:00,49.1,32.1,0.00,SE,135,0.0,0.0,52,0.00,,,0.00,WUHU216HW,2013-02-12 17:44:00,
2013-02-12 12:49:00,49.2,32.3,0.00,SE,135,0.0,0.0,52,0.00,,,0.00,WUHU216HW,2013-02-12 17:49:00,
2013-02-12 12:54:00,49.1,32.1,0.00,SE,135,0.0,0.0,52,0.00,,,0.00,WUHU216HW,2013-02-12 17:54:00,
2013-02-12 12:59:00,49.2,32.3,0.00,SE,135,0.0,0.0,52,0.00,,,0.00,WUHU216HW,2013-02-12 17:59:00,
2013-02-12 13:04:00,49.2,32.3,0.00,SE,135,0.0,1.3,52,0.00,,,0.00,WUHU216HW,2013-02-12 18:04:00,
2013-02-12 13:09:00,49.2,31.9,0.00,SE,135,0.0,1.3,51,0.00,,,0.00,WUHU216HW,2013-02-12 18:09:00,
2013-02-12 13:14:00,49.6,32.2,0.00,SE,135,0.0,0.0,51,0.00,,,0.00,WUHU216HW,2013-02-12 18:14:00,
2013-02-12 13:19:00,49.6,32.2,0.00,SE,135,0.0,4.2,51,0.00,,,0.00,WUHU216HW,2013-02-12 18:19:00,
2013-02-12 13:24:00,49.8,32.4,0.00,SE,135,0.0,4.2,51,0.00,,,0.00,WUHU216HW,2013-02-12 18:24:00,
2013-02-12 13:29:00,49.8,32.4,0.00,SE,135,0.0,0.0,51,0.00,,,0.00,WUHU216HW,2013-02-12 18:29:00,
2013-02-12 13:34:00,49.8,32.0,0.00,SE,135,0.0,0.0,50,0.00,,,0.00,WUHU216HW,2013-02-12 18:34:00,
2013-02-12 13:39:00,49.8,32.0,0.00,SE,135,0.0,0.0,50,0.00,,,0.00,WUHU216HW,2013-02-12 18:39:00,
2013-02-12 13:44:00,49.6,32.2,0.00,SE,135,0.0,0.0,51,0.00,,,0.00,WUHU216HW,2013-02-12 18:44:00,
2013-02-12 13:49:00,49.6,32.2,0.00,SE,135,0.0,0.0,51,0.00,,,0.00,WUHU216HW,2013-02-12 18:49:00,
2013-02-12 13:54:00,49.6,32.2,0.00,SE,135,0.0,0.0,51,0.00,,,0.00,WUHU216HW,2013-02-12 18:54:00,
2013-02-12 13:59:00,49.8,32.4,0.00,SE,135,0.0,0.0,51,0.00,,,0.00,WUHU216HW,2013-02-12 18:59:00,
2013-02-12 14:04:00,49.8,32.4,0.00,SE,135,0.0,0.0,51,0.00,,,0.00,WUHU216HW,2013-02-12 19:04:00,
2013-02-12 14:09:00,49.8,32.4,0.00,SE,135,0.0,0.0,51,0.00,,,0.00,WUHU216HW,2013-02-12 19:09:00,
2013-02-12 14:14:00,49.8,32.4,0.00,SE,135,0.0,0.0,51,0.00,,,0.00,WUHU216HW,2013-02-12 19:14:00,
2013-02-12 14:19:00,49.8,32.9,0.00,SE,135,0.0,0.0,52,0.00,,,0.00,WUHU216HW,2013-02-12 19:19:00,
2013-02-12 14:24:00,49.8,32.9,0.00,SE,135,0.0,0.0,52,0.00,,,0.00,WUHU216HW,2013-02-12 19:24:00,
2013-02-12 14:29:00,49.8,32.9,0.00,SE,135,0.0,0.0,52,0.00,,,0.00,WUHU216HW,2013-02-12 19:29:00,
2013-02-12 14:34:00,49.8,32.9,0.00,SE,135,0.0,2.6,52,0.00,,,0.00,WUHU216HW,2013-02-12 19:34:00,
2013-02-12 14:39:00,49.8,32.9,0.00,SE,135,2.4,2.6,52,0.00,,,0.00,WUHU216HW,2013-02-12 19:39:00,
2013-02-12 14:44:00,49.8,32.9,0.00,SE,135,1.5,2.6,52,0.00,,,0.00,WUHU216HW,2013-02-12 19:44:00,
2013-02-12 14:49:00,49.8,32.9,0.00,SE,135,0.0,2.6,52,0.00,,,0.00,WUHU216HW,2013-02-12 19:49:00,
2013-02-12 14:54:00,49.8,32.9,0.00,SE,135,0.0,0.0,52,0.00,,,0.00,WUHU216HW,2013-02-12 19:54:00,
2013-02-12 14:59:00,49.6,32.7,0.00,SE,135,0.0,0.0,52,0.00,,,0.00,WUHU216HW,2013-02-12 19:59:00,
2013-02-12 15:04:00,49.6,32.7,0.00,SE,135,0.0,0.0,52,0.00,,,0.00,WUHU216HW,2013-02-12 20:04:00,
2013-02-12 15:09:00,49.6,32.7,0.00,SE,135,0.0,0.0,52,0.00,,,0.00,WUHU216HW,2013-02-12 20:09:00,
2013-02-12 15:14:00,49.4,32.5,0.00,SE,135,0.0,0.0,52,0.00,,,0.00,WUHU216HW,2013-02-12 20:14:00,
2013-02-12 15:19:00,49.2,32.3,0.00,SE,135,0.0,0.0,52,0.00,,,0.00,WUHU216HW,2013-02-12 20:19:00,
2013-02-12 15:24:00,49.2,32.3,0.00,SE,135,0.0,0.0,52,0.00,,,0.00,WUHU216HW,2013-02-12 20:24:00,
2013-02-12 15:29:00,49.2,32.3,0.00,SE,135,0.0,0.0,52,0.00,,,0.00,WUHU216HW,2013-02-12 20:29:00,
2013-02-12 15:34:00,49.1,32.1,0.00,SE,135,0.0,0.0,52,0.00,,,0.00,WUHU216HW,2013-02-12 20:34:00,
2013-02-12 15:39:00,48.9,32.1,0.00,SE,135,0.0,0.0,52,0.00,,,0.00,WUHU216HW,2013-02-12 20:39:00,
2013-02-12 15:44:00,48.9,32.0,0.00,SE,135,0.0,0.0,52,0.00,,,0.00,WUHU216HW,2013-02-12 20:44:00,
2013-02-12 15:49:00,48.7,31.8,0.00,SE,135,0.0,0.0,52,0.00,,,0.00,WUHU216HW,2013-02-12 20:49:00,
2013-02-12 15:54:00,48.7,32.3,0.00,SE,135,0.0,0.0,53,0.00,,,0.00,WUHU216HW,2013-02-12 20:54:00,
2013-02-12 15:59:00,48.7,32.3,0.00,SE,135,0.0,0.0,53,0.00,,,0.00,WUHU216HW,2013-02-12 20:59:00,
2013-02-12 16:04:00,48.5,32.1,0.00,SE,135,0.0,0.0,53,0.00,,,0.00,WUHU216HW,2013-02-12 21:04:00,
2013-02-12 16:09:00,48.5,32.1,0.00,SE,135,0.0,0.0,53,0.00,,,0.00,WUHU216HW,2013-02-12 21:09:00,
2013-02-12 16:14:00,48.3,31.9,0.00,SE,135,0.0,0.0,53,0.00,,,0.00,WUHU216HW,2013-02-12 21:14:00,
2013-02-12 16:19:00,48.3,31.9,0.00,SE,135,0.0,0.0,53,0.00,,,0.00,WUHU216HW,2013-02-12 21:19:00,
2013-02-12 16:24:00,48.2,31.3,0.00,SE,135,0.0,0.0,52,0.00,,,0.00,WUHU216HW,2013-02-12 21:24:00,
2013-02-12 16:29:00,48.2,31.3,0.00,SE,135,0.0,0.0,52,0.00,,,0.00,WUHU216HW,2013-02-12 21:29:00,
2013-02-12 16:34:00,48.0,31.6,0.00,SE,135,0.0,0.0,53,0.00,,,0.00,WUHU216HW,2013-02-12 21:34:00,
2013-02-12 16:39:00,48.0,31.6,0.00,SE,135,0.0,0.0,53,0.00,,,0.00,WUHU216HW,2013-02-12 21:39:00,
2013-02-12 16:44:00,48.0,31.6,0.00,SE,135,0.0,0.0,53,0.00,,,0.00,WUHU216HW,2013-02-12 21:44:00,
2013-02-12 16:49:00,48.0,31.6,0.00,SE,135,0.0,0.0,53,0.00,,,0.00,WUHU216HW,2013-02-12 21:49:00,
2013-02-12 16:54:00,48.0,31.6,0.00,SE,135,0.0,0.0,53,0.00,,,0.00,WUHU216HW,2013-02-12 21:54:00,
2013-02-12 16:59:00,47.8,31.4,0.00,SE,135,0.0,0.0,53,0.00,,,0.00,WUHU216HW,2013-02-12 21:59:00,
2013-02-12 17:04:00,47.8,31.9,0.00,SE,135,0.0,0.0,54,0.00,,,0.00,WUHU216HW,2013-02-12 22:04:00,
2013-02-12 17:09:00,47.6,31.7,0.00,SE,135,0.0,0.0,54,0.00,,,0.00,WUHU216HW,2013-02-12 22:09:00,
2013-02-12 17:14:00,47.4,31.5,0.00,SE,135,0.0,0.0,54,0.00,,,0.00,WUHU216HW,2013-02-12 22:14:00,
2013-02-12 17:19:00,47.4,32.0,0.00,SE,135,0.0,0.0,55,0.00,,,0.00,WUHU216HW,2013-02-12 22:19:00,
2013-02-12 17:24:00,47.3,31.8,0.00,SE,135,0.0,0.0,55,0.00,,,0.00,WUHU216HW,2013-02-12 22:24:00,
2013-02-12 17:29:00,47.3,32.3,0.00,SE,135,0.0,0.0,56,0.00,,,0.00,WUHU216HW,2013-02-12 22:29:00,
2013-02-12 17:34:00,47.3,32.3,0.00,SE,135,0.0,0.0,56,0.00,,,0.00,WUHU216HW,2013-02-12 22:34:00,
2013-02-12 17:39:00,47.1,32.1,0.00,SE,135,0.0,0.0,56,0.00,,,0.00,WUHU216HW,2013-02-12 22:39:00,
2013-02-12 17:44:00,47.1,32.1,0.00,SE,135,0.0,0.0,56,0.00,,,0.00,WUHU216HW,2013-02-12 22:44:00,
2013-02-12 17:49:00,46.9,32.4,0.00,SE,135,0.0,0.0,57,0.00,,,0.00,WUHU216HW,2013-02-12 22:49:00,
2013-02-12 17:54:00,46.9,32.4,0.00,SE,135,0.0,0.0,57,0.00,,,0.00,WUHU216HW,2013-02-12 22:54:00,
2013-02-12 17:59:00,46.7,32.2,0.00,SE,135,0.0,0.0,57,0.00,,,0.00,WUHU216HW,2013-02-12 22:59:00,
2013-02-12 18:04:00,46.5,32.5,0.00,SE,135,0.0,0.0,58,0.00,,,0.00,WUHU216HW,2013-02-12 23:04:00,
2013-02-12 18:09:00,46.5,32.5,0.00,SE,135,0.0,0.0,58,0.00,,,0.00,WUHU216HW,2013-02-12 23:09:00,
2013-02-12 18:14:00,46.4,32.3,0.00,SE,135,0.0,0.0,58,0.00,,,0.00,WUHU216HW,2013-02-12 23:14:00,
2013-02-12 18:19:00,46.2,32.1,0.00,SE,135,0.0,0.0,58,0.00,,,0.00,WUHU216HW,2013-02-12 23:19:00,
2013-02-12 18:24:00,46.2,32.6,0.00,SE,135,0.0,0.0,59,0.00,,,0.00,WUHU216HW,2013-02-12 23:24:00,
2013-02-12 18:29:00,46.0,32.4,0.00,SE,135,0.0,0.0,59,0.00,,,0.00,WUHU216HW,2013-02-12 23:29:00,
2013-02-12 18:34:00,46.0,32.4,0.00,SE,135,0.0,0.0,59,0.00,,,0.00,WUHU216HW,2013-02-12 23:34:00,
2013-02-12 18:39:00,46.0,32.4,0.00,SE,135,0.0,0.0,59,0.00,,,0.00,WUHU216HW,2013-02-12 23:39:00,
2013-02-12 18:44:00,45.8,32.7,0.00,SE,135,0.0,0.0,60,0.00,,,0.00,WUHU216HW,2013-02-12 23:44:00,
2013-02-12 18:49:00,45.6,32.6,0.00,SE,135,0.0,0.0,60,0.00,,,0.00,WUHU216HW,2013-02-12 23:49:00,
2013-02-12 18:54:00,45.3,32.6,0.00,SE,135,0.0,0.0,61,0.00,,,0.00,WUHU216HW,2013-02-12 23:54:00,
2013-02-12 18:59:00,45.1,32.5,0.00,SE,135,0.0,0.0,61,0.00,,,0.00,WUHU216HW,2013-02-12 23:59:00,
2013-02-12 19:03:00,44.9,33.0,0.00,SE,135,0.0,0.0,63,0.00,,,0.00,WUHU216HW,2013-02-13 00:03:00,
2013-02-12 19:09:00,44.7,33.3,0.00,SE,135,0.0,0.0,64,0.00,,,0.00,WUHU216HW,2013-02-13 00:09:00,
2013-02-12 19:13:00,44.4,32.9,0.00,SE,135,0.0,0.0,64,0.00,,,0.00,WUHU216HW,2013-02-13 00:13:00,
2013-02-12 19:18:00,44.2,33.1,0.00,SE,135,0.0,0.0,65,0.00,,,0.00,WUHU216HW,2013-02-13 00:18:00,
2013-02-12 19:23:00,43.8,33.6,0.00,SE,135,0.0,0.0,67,0.02,,,0.02,WUHU216HW,2013-02-13 00:23:00,
2013-02-12 19:28:00,43.5,33.6,0.00,SE,135,0.0,0.0,68,0.02,,,0.02,WUHU216HW,2013-02-13 00:28:00,
2013-02-12 19:33:00,43.1,33.7,0.00,SE,135,0.0,0.0,69,0.02,,,0.02,WUHU216HW,2013-02-13 00:33:00,
2013-02-12 19:38:00,42.9,33.9,0.00,SE,135,0.0,0.0,70,0.02,,,0.02,WUHU216HW,2013-02-13 00:38:00,
2013-02-12 19:43:00,42.8,33.8,0.00,SE,135,0.0,0.0,70,0.02,,,0.02,WUHU216HW,2013-02-13 00:43:00,
2013-02-12 19:48:00,42.6,33.9,0.00,SE,135,0.0,0.0,71,0.02,,,0.02,WUHU216HW,2013-02-13 00:48:00,
2013-02-12 19:53:00,42.4,33.7,0.00,SE,135,0.0,0.0,71,0.04,,,0.04,WUHU216HW,2013-02-13 00:53:00,
2013-02-12 19:58:00,42.4,33.7,0.00,SE,135,0.0,0.0,71,0.04,,,0.04,WUHU216HW,2013-02-13 00:58:00,
2013-02-12 20:03:00,42.4,33.7,0.00,SE,135,0.0,0.0,71,0.04,,,0.04,WUHU216HW,2013-02-13 01:03:00,
2013-02-12 20:08:00,42.4,34.0,0.00,SE,135,0.0,0.0,72,0.04,,,0.04,WUHU216HW,2013-02-13 01:08:00,
2013-02-12 20:13:00,42.0,34.0,0.00,SE,135,0.0,0.0,73,0.04,,,0.04,WUHU216HW,2013-02-13 01:13:00,
2013-02-12 20:18:00,41.9,33.8,0.00,SE,135,0.0,0.0,73,0.04,,,0.04,WUHU216HW,2013-02-13 01:18:00,
2013-02-12 20:23:00,41.7,33.6,0.00,SE,135,0.0,0.0,73,0.02,,,0.04,WUHU216HW,2013-02-13 01:23:00,
2013-02-12 20:28:00,41.5,33.8,0.00,SE,135,0.0,0.0,74,0.04,,,0.06,WUHU216HW,2013-02-13 01:28:00,
2013-02-12 20:33:00,41.5,33.8,0.00,SE,135,0.0,0.0,74,0.04,,,0.06,WUHU216HW,2013-02-13 01:33:00,
2013-02-12 20:38:00,41.3,33.9,0.00,SE,135,0.0,0.0,75,0.04,,,0.06,WUHU216HW,2013-02-13 01:38:00,
2013-02-12 20:43:00,41.1,33.8,0.00,SE,135,0.0,0.0,75,0.04,,,0.06,WUHU216HW,2013-02-13 01:43:00,
2013-02-12 20:48:00,41.1,33.8,0.00,SE,135,0.0,0.0,75,0.04,,,0.06,WUHU216HW,2013-02-13 01:48:00,
2013-02-12 20:53:00,41.1,33.8,0.00,SE,135,0.0,0.0,75,0.04,,,0.08,WUHU216HW,2013-02-13 01:53:00,
2013-02-12 20:58:00,41.0,33.6,0.00,SE,135,0.0,0.0,75,0.04,,,0.08,WUHU216HW,2013-02-13 01:58:00,
2013-02-12 21:03:00,41.0,33.9,0.00,SE,135,0.0,0.0,76,0.04,,,0.08,WUHU216HW,2013-02-13 02:03:00,
2013-02-12 21:08:00,40.8,33.7,0.00,SE,135,0.0,0.0,76,0.04,,,0.08,WUHU216HW,2013-02-13 02:08:00,
2013-02-12 21:13:00,40.8,34.0,0.00,SE,135,0.0,0.0,77,0.04,,,0.08,WUHU216HW,2013-02-13 02:13:00,
2013-02-12 21:18:00,40.8,34.0,0.00,SE,135,0.0,0.0,77,0.04,,,0.08,WUHU216HW,2013-02-13 02:18:00,
2013-02-12 21:23:00,40.6,33.9,0.00,SE,135,0.0,0.0,77,0.04,,,0.08,WUHU216HW,2013-02-13 02:23:00,
2013-02-12 21:28:00,40.6,33.9,0.00,SE,135,0.0,0.0,77,0.02,,,0.08,WUHU216HW,2013-02-13 02:28:00,
2013-02-12 21:33:00,40.6,33.9,0.00,SE,135,0.0,0.0,77,0.02,,,0.08,WUHU216HW,2013-02-13 02:33:00,
2013-02-12 21:38:00,40.6,33.9,0.00,SE,135,0.0,0.0,77,0.02,,,0.08,WUHU216HW,2013-02-13 02:38:00,
2013-02-12 21:43:00,40.4,34.0,0.00,SE,135,0.0,0.0,78,0.02,,,0.08,WUHU216HW,2013-02-13 02:43:00,
2013-02-12 21:48:00,40.2,33.9,0.00,SE,135,0.0,0.0,78,0.00,,,0.08,WUHU216HW,2013-02-13 02:48:00,
2013-02-12 21:53:00,40.2,33.9,0.00,SE,135,0.0,0.0,78,0.00,,,0.08,WUHU216HW,2013-02-13 02:53:00,
2013-02-12 21:58:00,40.2,34.2,0.00,SE,135,0.0,0.0,79,0.00,,,0.08,WUHU216HW,2013-02-13 02:58:00,
2013-02-12 22:03:00,40.2,34.2,0.00,SE,135,0.0,0.0,79,0.00,,,0.08,WUHU216HW,2013-02-13 03:03:00,
2013-02-12 22:08:00,40.2,34.2,0.00,SE,135,0.0,0.0,79,0.00,,,0.08,WUHU216HW,2013-02-13 03:08:00,
2013-02-12 22:13:00,40.2,34.5,0.00,SE,135,0.0,0.0,80,0.00,,,0.08,WUHU216HW,2013-02-13 03:13:00,
2013-02-12 22:18:00,40.2,34.5,0.00,SE,135,0.0,0.0,80,0.02,,,0.10,WUHU216HW,2013-02-13 03:18:00,
2013-02-12 22:23:00,40.2,34.5,0.00,SE,135,0.0,0.0,80,0.02,,,0.10,WUHU216HW,2013-02-13 03:23:00,
2013-02-12 22:28:00,40.2,34.5,0.00,SE,135,0.0,0.0,80,0.02,,,0.10,WUHU216HW,2013-02-13 03:28:00,
2013-02-12 22:33:00,40.2,34.5,0.00,SE,135,0.0,0.0,80,0.02,,,0.10,WUHU216HW,2013-02-13 03:33:00,
2013-02-12 22:38:00,40.2,34.5,0.00,SE,135,0.0,0.0,80,0.02,,,0.10,WUHU216HW,2013-02-13 03:38:00,
2013-02-12 22:43:00,40.2,34.5,0.00,SE,135,0.0,0.0,80,0.02,,,0.10,WUHU216HW,2013-02-13 03:43:00,
2013-02-12 22:48:00,40.2,34.5,0.00,SE,135,0.0,0.0,80,0.02,,,0.10,WUHU216HW,2013-02-13 03:48:00,
2013-02-12 22:53:00,40.2,34.5,0.00,SE,135,0.0,0.0,80,0.02,,,0.10,WUHU216HW,2013-02-13 03:53:00,
2013-02-12 22:58:00,40.1,34.4,0.00,SE,135,0.0,0.0,80,0.02,,,0.10,WUHU216HW,2013-02-13 03:58:00,
2013-02-12 23:03:00,40.1,34.4,0.00,SE,135,0.0,0.0,80,0.02,,,0.10,WUHU216HW,2013-02-13 04:03:00,
2013-02-12 23:08:00,40.1,34.7,0.00,SE,135,0.0,0.0,81,0.02,,,0.10,WUHU216HW,2013-02-13 04:08:00,
2013-02-12 23:13:00,40.2,34.8,0.00,SE,135,0.0,0.0,81,0.00,,,0.10,WUHU216HW,2013-02-13 04:13:00,
2013-02-12 23:18:00,40.2,34.8,0.00,SE,135,0.0,0.0,81,0.00,,,0.10,WUHU216HW,2013-02-13 04:18:00,
2013-02-12 23:23:00,40.2,34.8,0.00,SE,135,0.0,0.0,81,0.00,,,0.10,WUHU216HW,2013-02-13 04:23:00,
2013-02-12 23:28:00,40.1,34.7,0.00,SE,135,0.0,0.0,81,0.00,,,0.10,WUHU216HW,2013-02-13 04:28:00,
2013-02-12 23:33:00,40.1,34.7,0.00,SE,135,0.0,0.0,81,0.00,,,0.10,WUHU216HW,2013-02-13 04:33:00,
2013-02-12 23:38:00,40.1,34.7,0.00,SE,135,0.0,0.0,81,0.00,,,0.10,WUHU216HW,2013-02-13 04:38:00,
2013-02-12 23:43:00,40.1,34.7,0.00,SE,135,0.0,0.0,81,0.00,,,0.10,WUHU216HW,2013-02-13 04:43:00,
2013-02-12 23:48:00,40.1,35.0,0.00,SE,135,0.0,0.0,82,0.00,,,0.10,WUHU216HW,2013-02-13 04:48:00,
2013-02-12 23:53:00,40.1,35.0,0.00,SE,135,0.0,0.8,82,0.00,,,0.10,WUHU216HW,2013-02-13 04:53:00,
2013-02-12 23:58:00,40.1,35.3,0.00,SE,135,0.0,0.8,83,0.00,,,0.10,WUHU216HW,2013-02-13 04:58:00,